RH
9 15 20 20 25 32 30 25 19 32 59 67 66 69 87 88 83 84 93 82 46 49 60 73 71 68 74 65 51 60 66 63 53 31 20 17 14 16 12 12 16 18 20 19 17 16 18 21 42
11 18 26 25 25 26 24 24 64 61 57 61 61 75 83 94 95 100 92 78 42 46 65 76 74 76 72 57 60 67 69 60 36 24 18 13 16 13 14 17 20 20 19 17 17 17 18 31 50
15 19 22 26 24 22 22 40 58 57 55 52 57 72 84 96 97 98 94 65 46 53 71 73 67 71 66 60 72 74 69 47 27 23 13 15 15 15 19 21 21 19 19 21 26 27 25 42 47
16 16 16 18 20 15 21 66 54 53 50 51 58 84 87 100 98 93 94 95 63 55 62 85 72 64 58 72 77 75 54 31 25 17 16 17 16 19 21 20 20 20 23 29 30 32 33 35 42
19 18 22 19 16 25 61 63 59 54 52 55 53 73 92 99 100 99 100 91 70 88 86 86 76 65 77 81 80 62 34 25 20 16 19 18 20 22 22 21 21 23 28 30 32 34 34 35 35
21 17 22 21 20 56 61 58 63 63 57 52 57 66 91 100 100 100 100 94 78 95 99 88 82 81 80 80 67 41 29 26 17 21 20 20 22 22 22 22 24 27 31 32 34 34 35 45 47
23 25 24 20 19 47 61 57 66 65 62 52 50 82 100 100 98 99 99 96 90 89 91 88 91 79 80 70 48 33 29 19 22 21 22 23 23 22 23 23 25 29 32 34 34 36 37 52 54
17 20 19 18 47 62 60 69 60 53 48 50 58 90 93 99 95 100 100 100 99 99 98 84 67 74 80 56 38 28 27 20 23 25 25 25 26 26 26 26 28 31 34 38 41 45 50 60 58
15 22 24 20 62 57 63 61 56 55 56 55 60 69 66 99 100 96 99 99 94 85 73 74 95 82 60 38 33 32 23 26 28 28 28 30 31 36 48 50 43 41 48 69 66 68 68 67 67
14 22 18 21 55 65 62 62 58 58 54 89 95 86 87 98 92 98 97 98 98 93 86 69 88 64 53 43 31 29 24 31 31 32 38 55 56 69 75 76 67 72 76 75 76 74 70 72 74
14 18 25 52 54 54 60 61 47 53 48 61 99 100 84 94 96 85 80 72 85 75 76 75 73 69 45 37 36 30 37 58 61 62 65 59 64 70 87 82 79 76 76 76 75 73 75 76 75
14 12 18 52 49 49 61 52 52 54 49 58 55 55 77 86 95 66 59 56 79 88 88 79 71 45 38 36 34 36 44 73 70 83 75 76 85 86 88 82 77 75 75 76 79 79 79 79 77
17 15 27 44 43 43 46 51 51 45 45 64 59 65 92 76 70 51 64 54 67 88 84 79 60 45 41 38 50 58 59 63 66 77 88 93 86 93 78 78 79 79 78 79 79 79 78 75 63
19 44 50 50 49 50 55 50 48 42 49 58 67 91 91 76 59 47 75 55 81 95 86 82 77 70 65 62 67 68 78 61 59 75 78 83 78 74 73 73 78 85 85 83 80 78 61 42 38
20 30 40 42 41 39 43 45 46 50 46 55 74 89 83 73 66 59 65 88 87 92 83 79 77 75 65 72 72 71 78 78 80 80 74 78 79 79 82 82 82 83 84 82 73 41 42 33 22
18 23 34 46 42 34 36 39 36 45 54 70 72 80 86 80 60 62 65 71 80 82 80 76 73 75 71 69 75 80 80 82 80 75 71 63 63 72 75 78 82 83 70 42 38 39 33 27 26
24 27 24 33 30 35 33 36 35 36 47 63 72 79 85 83 63 68 74 75 72 58 58 70 66 67 77 76 78 82 81 77 70 61 57 58 65 68 69 63 49 40 42 43 41 38 30 34 34
29 25 24 26 39 37 42 36 31 31 42 55 65 69 56 60 56 65 65 59 55 53 34 43 59 73 85 77 70 70 75 64 56 60 61 57 50 41 36 37 40 45 46 46 47 39 40 40 41
26 27 27 23 25 39 37 33 31 36 42 42 46 54 47 52 53 56 54 53 56 60 42 38 43 60 67 78 71 66 60 59 68 66 66 51 41 38 37 42 46 50 54 56 51 38 31 23 29
35 33 29 27 21 33 33 34 33 36 37 33 34 39 41 45 49 53 52 55 59 62 61 55 58 60 70 69 61 60 64 76 80 74 58 46 43 43 44 47 52 57 58 49 39 37 33 35 40
36 40 33 31 25 21 24 28 24 24 33 34 30 29 32 35 45 51 52 53 60 66 65 66 68 69 70 68 67 74 84 81 74 65 51 44 51 53 59 60 59 57 53 48 46 48 53 60 52
40 33 33 32 25 25 25 41 35 25 32 38 32 29 27 29 38 45 53 56 59 62 68 70 73 79 81 83 82 82 69 66 67 60 47 56 60 65 65 61 60 56 55 53 55 61 65 65 51
38 33 31 32 35 33 33 35 34 30 30 33 37 29 26 28 32 39 44 47 58 62 69 76 87 92 92 88 89 74 68 64 56 53 61 66 70 69 64 66 64 58 58 60 64 66 66 47 29
27 29 43 48 48 50 36 37 38 35 28 23 30 31 33 38 36 46 46 50 59 64 71 85 93 92 98 91 87 82 56 51 60 64 66 70 72 67 68 72 70 61 62 65 66 64 43 20 22
30 40 55 59 71 59 39 44 34 31 29 27 28 34 34 38 44 51 54 56 58 68 82 70 87 89 88 96 82 67 63 61 62 64 67 75 74 73 75 69 61 73 65 64 56 43 26 30 38
41 37 59 46 76 61 38 46 40 33 29 24 22 24 34 41 44 51 54 54 60 66 74 78 82 76 88 78 67 69 68 68 70 68 72 77 74 63 63 72 77 76 70 66 39 25 31 36 48
38 46 39 53 63 81 48 29 33 32 38 40 40 33 36 47 51 49 53 60 68 71 69 75 74 79 86 64 63 66 68 69 68 70 66 63 75 79 77 73 74 73 66 35 24 22 27 42 60
29 33 47 60 40 43 40 37 51 36 35 42 48 41 48 56 58 57 62 62 66 64 71 78 69 70 70 63 62 64 69 75 75 76 78 74 80 76 78 62 76 53 36 25 20 26 42 61 72
32 32 32 41 56 56 68 44 30 40 38 47 49 37 46 55 55 55 56 61 63 66 66 64 62 61 61 62 64 70 74 75 70 70 81 86 88 84 74 48 50 48 39 28 29 39 59 68 64
41 38 40 63 37 58 74 47 28 34 38 33 37 45 44 43 45 47 48 50 59 61 63 60 58 58 60 62 68 74 75 74 79 81 87 91 86 81 51 52 54 44 41 42 42 59 72 77 72
Wind_Speed
3 3 2 2 3 4 4 6 5 8 1 6 9 14 11 7 3 3 17 19 34 33 32 33 32 31 26 25 24 22 19 17 15 14 15 16 16 18 19 20 20 20 20 21 22 22 22 22 20
2 3 2 1 4 2 5 5 3 5 10 10 12 12 8 5 4 12 25 27 32 33 33 35 33 30 28 25 23 21 18 16 14 14 16 17 18 19 19 19 19 20 22 24 25 26 25 24 21
3 5 2 3 3 5 4 3 3 1 5 4 5 11 6 2 10 21 16 30 31 32 32 34 33 32 28 25 21 20 18 15 14 15 18 18 18 19 18 19 19 21 24 25 26 26 26 23 21
2 4 3 3 6 5 3 13 7 6 6 4 13 7 8 3 5 18 21 28 31 31 33 31 35 33 29 24 21 18 16 15 15 16 18 19 19 18 17 19 20 22 23 23 24 23 23 22 18
1 1 0 4 3 1 2 10 14 5 2 6 1 3 5 8 11 20 25 28 32 30 32 31 30 28 25 23 19 16 14 15 16 17 18 18 18 17 18 19 20 20 20 20 20 19 18 17 16
1 1 3 1 3 1 2 7 5 6 12 8 9 7 4 7 12 13 20 27 31 27 27 25 24 23 20 19 16 16 15 16 17 18 18 18 18 18 17 17 18 17 16 16 15 13 13 13 12
5 3 4 3 3 5 2 6 2 5 12 3 6 4 7 10 9 8 15 31 33 30 29 25 21 21 17 15 15 15 17 17 18 18 18 18 18 17 16 15 14 13 12 12 10 8 9 8 8
3 4 2 3 2 5 1 3 1 7 6 13 6 6 7 18 17 21 28 34 37 31 28 28 29 18 18 17 15 16 17 17 18 18 19 19 19 17 14 13 12 11 10 9 7 7 7 5 5
5 3 3 6 7 2 4 4 3 10 6 4 3 6 16 25 21 22 25 23 23 30 30 21 20 19 18 17 17 17 17 18 19 19 19 19 17 15 14 12 11 10 11 10 8 6 5 4 2
4 3 7 4 3 5 6 5 3 0 2 7 17 21 29 26 26 28 30 27 27 26 24 28 21 19 21 19 19 19 19 20 20 19 18 17 14 12 11 12 12 12 10 7 5 2 1 3 5
4 7 6 1 9 16 11 5 5 6 4 10 22 28 29 30 29 27 26 19 33 30 28 27 23 19 18 20 20 20 21 22 20 17 15 14 12 10 10 11 10 9 7 5 5 3 4 5 7
4 17 12 19 16 10 6 5 2 3 6 19 25 19 27 30 29 31 17 18 28 24 23 19 21 19 19 20 20 21 22 20 18 16 13 11 11 10 10 10 7 9 7 5 5 5 6 6 9
3 6 9 24 21 14 9 6 3 2 11 15 20 24 33 36 39 20 15 22 28 25 24 20 20 21 22 22 21 21 20 18 17 14 12 10 7 7 7 6 6 6 6 6 7 8 11 12 13
7 17 19 15 13 13 7 3 3 4 13 14 17 25 37 41 30 26 25 32 28 25 26 24 21 23 23 23 21 20 18 16 15 13 12 11 11 10 8 7 8 9 9 10 11 12 13 13 14
3 12 8 4 4 5 8 2 3 6 23 24 22 32 39 35 36 25 34 33 31 29 27 25 27 25 25 22 19 17 16 15 15 14 12 11 10 9 10 9 9 9 10 11 12 12 11 13 11
3 4 4 5 11 5 16 4 5 8 22 22 24 30 34 34 38 30 33 31 32 34 30 30 29 27 22 20 20 21 20 17 15 12 10 8 9 9 9 8 8 9 9 10 10 12 13 13 15
4 3 4 2 5 3 3 4 6 16 17 22 25 34 38 39 35 37 37 36 34 30 32 35 32 31 26 26 24 20 18 16 12 11 9 8 9 9 8 7 7 7 7 8 11 13 15 18 18
2 3 2 5 6 2 2 6 5 15 23 24 28 34 37 40 41 40 39 36 32 31 35 34 35 31 28 25 22 21 22 17 12 10 7 8 10 10 8 7 6 6 7 10 12 14 15 17 19
8 12 6 6 11 7 12 6 7 16 23 24 29 36 39 42 39 41 41 36 32 31 29 30 30 29 26 26 24 24 22 17 14 12 11 13 11 9 7 5 5 8 9 10 12 14 16 19 22
8 9 7 9 4 15 5 11 5 10 18 30 33 36 37 36 36 41 41 39 35 31 29 26 26 24 25 25 24 22 19 16 13 13 15 13 10 7 5 6 9 10 10 12 15 16 18 20 22
5 5 6 7 4 6 5 2 5 3 10 19 25 40 43 44 43 43 42 40 37 35 30 25 25 24 25 25 24 21 18 15 18 18 16 13 11 8 6 7 10 13 15 16 16 18 20 22 24
12 9 12 5 0 1 2 3 2 8 12 11 24 27 36 40 43 41 44 42 40 36 31 26 25 23 22 26 25 22 22 24 21 16 14 13 12 9 8 11 11 14 17 19 20 20 21 24 25
11 3 2 7 3 3 3 3 6 4 7 9 22 33 42 44 47 43 43 39 40 36 33 30 27 24 21 26 25 18 18 17 15 17 17 15 11 8 7 10 13 15 17 16 17 19 23 27 26
4 4 6 6 4 2 4 5 5 6 11 15 16 35 36 40 42 41 40 35 31 28 27 30 25 21 22 28 23 19 17 18 20 22 21 17 14 11 13 13 15 15 16 16 19 23 26 27 25
3 5 2 3 3 5 6 4 9 4 7 8 10 16 30 37 43 40 38 34 32 32 34 27 22 22 26 24 23 21 18 19 20 22 23 21 20 19 17 15 11 14 17 19 23 24 25 24 25
4 3 5 3 3 4 4 4 6 7 12 13 18 18 13 31 40 41 38 33 32 27 28 23 23 27 24 25 23 23 24 22 21 20 22 22 18 12 8 6 16 18 24 27 25 24 23 25 25
3 2 6 5 1 3 3 4 6 6 7 9 7 11 15 24 37 39 37 34 26 24 24 26 26 25 24 25 26 27 21 21 19 20 18 17 8 7 11 14 18 22 23 25 25 26 26 26 25
6 5 2 3 2 3 4 4 5 2 2 1 4 13 17 25 29 30 30 27 24 24 27 25 22 24 28 31 26 25 23 22 23 25 25 20 16 15 18 17 17 22 23 24 26 26 26 25 24
1 2 1 4 5 4 1 5 5 8 8 10 11 18 24 28 28 27 26 25 25 26 25 23 26 26 30 28 28 28 25 26 24 19 12 11 8 15 15 22 20 23 25 27 27 25 25 24 25
4 5 5 5 4 1 4 5 4 9 10 14 18 23 31 30 28 27 27 28 30 30 29 28 32 33 33 33 34 33 29 25 24 22 14 15 11 9 17 18 20 25 28 26 25 25 25 26 28
Wind_Direction
301 257 284 219 65 69 256 265 260 301 106 340 74 104 114 74 45 179 152 162 169 164 164 164 160 158 160 153 151 141 138 133 123 116 113 111 108 105 101 97 91 88 85 82 80 78 80 87 84
270 230 283 140 92 88 265 246 279 194 157 115 71 108 44 78 90 146 155 162 170 163 162 163 160 157 157 154 150 141 140 131 124 121 116 112 110 105 102 96 93 92 90 87 84 81 82 91 76
275 234 225 138 151 201 224 266 207 112 169 182 114 73 88 60 109 148 152 159 167 163 163 164 159 158 156 152 147 143 136 130 127 125 118 115 111 105 100 98 99 97 94 91 88 84 85 94 79
231 178 214 111 250 274 274 324 238 168 114 80 115 69 85 65 117 167 176 177 177 170 166 163 157 155 153 149 148 145 137 134 128 125 118 117 112 107 105 105 104 99 95 91 87 85 87 91 95
287 235 332 56 261 310 19 11 40 17 23 61 71 80 59 72 131 169 166 171 169 166 161 159 151 148 149 143 147 139 137 133 132 125 122 118 112 109 109 107 103 98 94 91 86 83 81 82 84
242 175 53 189 265 210 132 22 79 54 28 8 82 103 89 122 152 148 159 172 164 157 145 149 147 143 140 141 145 147 139 136 133 129 124 120 116 113 110 106 101 99 95 88 81 77 73 73 73
159 93 223 202 244 296 256 151 99 154 137 241 136 74 116 131 147 147 143 129 139 138 148 144 146 135 146 156 153 147 142 139 137 129 125 120 116 114 110 105 103 100 94 87 86 81 77 81 77
194 115 333 261 296 257 338 337 122 177 165 139 167 145 165 146 147 138 135 144 143 146 144 133 132 154 164 156 154 147 144 139 135 131 127 122 118 114 110 108 104 96 86 79 75 70 71 68 47
243 66 301 254 173 192 124 17 302 331 355 76 96 141 160 151 142 141 146 147 147 146 137 137 166 164 165 159 153 149 142 139 137 133 126 124 123 120 115 107 108 107 103 94 78 73 77 48 1
125 120 237 234 136 148 121 136 232 47 26 89 88 120 140 146 139 134 142 148 150 143 151 156 163 176 169 163 157 154 147 146 142 134 130 126 126 117 106 100 109 103 116 123 123 133 24 291 297
199 227 147 196 151 146 153 213 211 164 85 166 132 136 148 149 146 134 129 141 150 145 158 169 179 180 174 162 155 152 148 144 139 137 139 145 144 140 115 123 134 140 154 179 189 229 253 284 308
230 252 177 168 143 151 183 148 249 133 91 147 143 148 159 145 144 134 119 159 162 161 170 175 185 175 170 164 160 156 154 152 147 158 159 156 157 148 141 158 170 175 176 215 218 239 250 275 303
249 269 147 154 138 160 139 149 255 244 131 163 158 153 160 149 142 148 177 167 169 170 168 167 161 165 167 164 161 157 160 165 167 168 173 176 178 189 188 191 206 189 194 218 232 257 277 288 301
319 96 114 127 148 166 143 250 353 318 202 131 156 152 158 160 164 161 183 174 174 179 170 176 169 163 164 168 167 166 171 173 181 185 196 195 204 213 214 229 225 217 225 246 267 283 297 315 313
218 96 87 80 141 198 164 278 247 51 142 150 166 158 171 183 177 173 173 177 178 179 180 181 178 181 179 177 180 182 185 188 192 201 206 209 213 225 226 224 224 229 244 268 279 300 311 310 318
36 50 106 229 185 209 179 197 202 163 149 169 164 169 174 178 178 170 175 182 179 184 188 186 183 183 187 185 185 191 192 199 206 213 213 207 202 212 220 228 237 246 255 271 296 305 320 327 337
12 88 125 272 280 138 106 228 245 174 180 180 177 173 176 179 185 179 183 185 187 198 194 194 191 189 191 192 194 195 200 207 214 217 207 199 194 204 214 219 234 248 274 291 307 319 330 338 343
330 225 279 198 246 285 232 247 284 184 182 185 175 175 179 180 184 182 192 190 190 185 188 189 189 191 193 197 204 210 211 208 214 215 220 203 201 202 209 220 238 270 299 313 317 329 336 343 344
343 303 291 244 210 176 217 226 210 178 171 162 168 172 178 182 184 190 193 192 190 189 191 194 193 197 199 201 204 204 204 216 234 242 231 207 206 202 216 252 305 312 310 309 328 333 338 337 333
324 281 269 302 240 181 167 232 211 180 180 170 170 175 182 186 188 193 195 193 195 198 195 196 201 204 205 210 209 211 226 239 237 228 203 203 209 224 253 308 315 314 314 318 320 325 329 335 333
287 251 291 261 337 183 120 15 165 183 198 194 187 181 183 182 183 188 193 197 200 202 204 205 206 209 211 210 212 224 227 218 200 199 202 206 221 226 260 305 319 316 306 314 318 323 328 328 329
296 280 233 286 25 157 56 218 252 194 200 186 202 198 191 189 186 189 194 197 204 210 212 215 216 216 213 212 215 222 217 208 203 211 209 223 234 248 293 311 311 305 307 314 315 319 319 321 320
248 73 229 291 99 67 327 73 268 176 185 190 207 200 195 193 191 187 192 197 204 209 212 217 211 210 216 211 209 209 211 215 206 204 220 226 226 249 271 281 285 287 293 295 302 305 309 314 314
298 111 40 17 34 25 261 154 264 217 206 210 184 204 203 197 193 193 194 196 199 207 212 211 214 220 216 205 210 211 218 210 214 217 225 231 223 227 239 247 261 272 279 284 292 300 306 306 306
130 71 357 360 16 221 294 130 245 217 247 201 201 168 205 200 198 198 193 195 203 205 201 216 214 209 195 209 208 213 217 223 233 236 227 219 218 221 226 233 239 283 281 297 303 307 308 307 306
351 134 151 232 214 250 258 216 257 298 238 233 238 201 160 199 206 203 199 206 210 213 211 212 205 191 202 202 205 211 213 227 218 215 206 209 207 198 213 287 301 301 296 296 301 305 308 310 309
179 184 178 114 319 48 256 293 335 339 6 356 146 161 178 192 202 202 205 208 217 204 204 196 191 198 203 197 201 207 217 208 203 189 192 183 208 243 284 293 294 285 290 300 307 309 311 309 306
161 159 134 26 235 254 294 280 236 182 240 342 183 182 175 182 190 196 200 209 203 201 192 199 205 201 204 209 216 223 229 230 226 231 227 232 236 268 296 306 288 292 304 310 307 310 309 304 300
188 193 185 132 143 175 208 271 225 204 192 201 210 192 181 181 185 193 200 205 207 199 205 205 194 197 204 216 226 225 215 217 213 208 240 262 277 292 321 304 298 309 312 307 306 307 307 305 309
120 243 178 125 238 144 155 264 260 209 216 195 208 202 196 200 204 209 213 214 208 210 209 210 211 212 216 218 215 211 209 214 229 237 274 295 292 310 289 284 300 313 306 304 305 307 308 310 318